Date,TemperatureHighF,TemperatureAvgF,TemperatureLowF,DewpointHighF,DewpointAvgF,DewpointLowF,HumidityHigh,HumidityAvg,HumidityLow,PressureMaxIn,PressureMinIn,WindSpeedMaxMPH,WindSpeedAvgMPH,GustSpeedMaxMPH,PrecipitationSumIn
2013-1-1,31.1,22.3,8.4,19.2,12.0,-0.9,66,64,60,29.70,29.60,2,0,2,0.00
2013-1-2,20.3,10.5,-0.6,10.1,1.4,-9.2,69,66,64,29.79,29.70,5,0,5,0.00
2013-1-3,22.5,12.6,2.5,12.1,3.5,-6.2,70,67,63,29.73,29.56,4,0,4,0.00
2013-1-4,29.7,21.3,4.5,19.0,12.4,-3.2,74,68,63,29.62,29.53,2,0,2,0.00
2013-1-5,34.3,21.0,14.5,23.7,12.8,7.8,75,70,63,29.66,29.48,4,0,4,0.00
2013-1-6,39.2,26.9,17.1,27.9,17.9,9.3,73,69,60,29.49,29.31,5,0,5,0.00
2013-1-7,42.8,36.0,23.5,29.5,24.4,14.5,69,63,58,29.35,29.16,13,0,13,0.03
2013-1-8,42.6,37.7,30.7,27.5,22.7,18.9,63,55,50,29.44,29.18,8,0,8,0.03
2013-1-9,50.2,43.9,35.2,32.4,27.6,21.9,59,52,49,29.38,29.08,9,2,9,0.03
2013-1-10,31.8,20.8,11.3,25.4,15.1,5.5,81,78,77,29.24,29.06,6,1,6,0.00
2013-1-11,11.3,7.3,-1.7,3.7,1.5,-7.4,77,76,76,29.47,29.24,5,0,5,0.00
2013-1-12,11.3,0.9,-9.8,5.2,-5.1,-16.1,76,75,73,29.56,29.44,2,0,2,0.00
2013-1-13,13.1,5.9,0.5,6.7,-0.4,-5.6,76,75,73,29.62,29.50,2,0,2,0.00
2013-1-14,20.7,15.0,-3.1,13.7,8.4,-9.6,77,75,73,29.55,29.47,8,0,8,0.00
2013-1-15,35.8,28.8,19.6,27.6,21.6,13.2,79,74,71,29.72,29.53,0,0,0,0.00
2013-1-16,41.5,32.4,20.7,30.3,23.5,13.2,78,70,61,29.76,29.65,8,0,8,0.00
2013-1-17,39.0,29.4,15.1,27.9,20.3,8.2,74,69,62,29.77,29.57,4,0,4,0.00
2013-1-18,53.1,37.4,26.8,33.7,23.2,14.6,68,57,41,29.59,29.43,7,0,7,0.11
2013-1-19,49.5,36.7,28.4,30.7,22.6,16.6,63,57,46,29.70,29.54,6,0,6,0.06
2013-1-20,35.8,27.6,22.8,22.7,16.3,12.1,67,62,55,29.76,29.61,11,1,11,0.00
2013-1-21,51.3,36.6,19.6,31.4,22.9,11.4,71,58,46,29.63,29.46,4,0,4,0.00
2013-1-22,41.4,29.7,13.1,23.9,16.3,3.5,65,58,48,29.58,29.47,2,0,2,0.00
2013-1-23,39.7,33.5,22.1,25.1,21.1,12.8,67,60,54,29.50,29.30,2,0,2,0.00
2013-1-24,45.9,40.3,31.8,29.4,25.0,19.8,63,54,46,29.50,29.36,12,2,12,0.00
2013-1-25,50.2,42.4,36.3,33.7,29.0,20.6,67,59,52,29.50,29.34,7,0,7,0.00
2013-1-26,48.7,36.4,29.1,35.4,27.0,21.4,73,69,58,29.34,29.12,8,0,8,0.00
2013-1-27,36.7,30.0,18.1,27.1,21.3,9.3,75,70,59,29.33,29.21,5,0,5,0.00
2013-1-28,37.6,30.0,19.6,23.8,18.4,11.4,72,62,56,29.31,29.13,0,0,0,0.00
2013-1-29,24.6,15.8,11.1,14.7,6.1,0.5,75,65,60,29.54,29.13,2,0,2,0.00
2013-1-30,40.5,37.3,23.4,27.8,25.5,4.4,71,62,56,29.42,29.30,16,3,16,0.03
2013-1-31,46.0,41.5,37.6,30.4,27.8,25.4,62,58,53,29.54,29.42,9,1,9,0.06